CZ-4 DEB

Satellite information

Favourite Embed

Satellite Type and Status

DEBRISIN ORBIT

Key statistics

Satellite CZ-4 DEB at a glance.

Uptime

6563

Days in orbit

Revolutions

≈ 14.6

Per day

Orbit

SSO

Sun Synchronous Orbit

Inclination

98.0

Latest

Satellite identification and parameters

Extended collection of information and parameters for CZ-4 DEB.

Object identification

Identified? True

Debris? True

Object name: CZ-4 DEB

International designator: 2007-042C

Object number (NORAD): 32473

Object ID (CCSDS): 32473

Country: PEOPLES REPUBLIC OF CHINA (PRC)

Current information (Y/N): Y

RCS size: SMALL

Orbital parameters

Period: 98.588 minutes

Inclination: 97.9655 deg

SMA: 7069.281 km

Apoapsis: 756.246 km

Periapsis: 626.046 km

RAAN: 262.3682 deg

Eccentricy: 0.00920883

Argument of periapsis: 49.1978 deg

Mean anomaly: 311.7165 deg

Mean motion: 14.60628988 rev/day

Mean motion (dot): 0.00005619 rev/day2

B* drag term: 0.0010966596 1/REarth

Two-line elements (TLE)

Creation date: Sept. 6, 2025, 2:09 a.m.

Reference frame: TEME

Reference center: EARTH

Epoch: Sept. 5, 2025, 6:45 p.m. UTC

TLE line 0: 0 CZ-4 DEB

TLE line 1: 1 32473U 07042C 25248.78133873 .00005619 00000-0 10967-2 0 9999

TLE line 2: 2 32473 97.9655 262.3682 0092088 49.1978 311.7165 14.60628988937168

Live tracking on map

Real-time ground track for satellite CZ-4 DEB.

In-orbit conjunctions

A list of the most updated potential collisions computed for object CZ-4 DEB.

Target Orbit TCA Probability of collision Miss distance Type
GEOSAT SSO 2025-03-07 23:17:24 0.0004249297 438.0 (m) PAYLOAD
TITAN 3C TRANSTAGE DEB LEO 2024-11-14 04:19:23 0.0001848886 833.0 (m) DEBRIS

Associated space launch

Chinese-Brazilian Earth observation satellite

CZ-4 DEB was lifted into orbit during the mission ‘Long March 4B | Zi Yuan 1-2B’, on board a Long March 4B space rocket.

The launch took place on Sept. 19, 2007, 3:26 a.m. from Launch Complex 7.

For more information about the launch, click the button.

Launch to space Long March 4B | Zi Yuan 1-2B
Long March 4B | Zi Yuan 1-2B

Agency: N/A

Status: Launch Successful

Launch date: Sept. 19, 2007, 3:26 a.m. UTC

Rocket: Long March 4B

Launch pad: Launch Complex 7

Location: Taiyuan Satellite Launch Center, People's Republic of China

...

Latest news about this satellite

There are no fresh news available about this satellite. Check back as we update our databases every day.


Newsletter sign-up

Weekly statistics, charts and insights to help you stay on top of the space industry.